Regional Weather Roundup
Issued by NWS Little Rock, AR

Home | Current Version | Previous Version | Graphics & Text | Print | Product List | Glossary On
Versions: 1 2 3 4 5 6 7 8 9 10 11 12 13 14 15 16 17 18 19 20 21 22 23 24 25 26 27
000
ASUS44 KLZK 231905
RWRLZK

WEATHER ROUNDUP FOR ARKANSAS
NATIONAL WEATHER SERVICE LITTLE ROCK AR
200 PM CDT TUE AUG 23 2016

NOTE: "FAIR" INDICATES FEW OR NO CLOUDS BELOW 12,000 FEET WITH NO
SIGNIFICANT WEATHER AND/OR OBSTRUCTIONS TO VISIBILITY.

ARZ001-003-010-029-232000-
NORTHWEST ARKANSAS

CITY           SKY/WX    TMP DP  RH WIND       PRES   REMARKS
FAYETTEVILLE   PTSUNNY   83  72  69 S17G23    30.14F HX  88
FORT SMITH     CLOUDY    87  69  54 SW10      30.12F HX  91
HARRISON       PTSUNNY   82  70  66 S12       30.17S HX  86
BENTONVILLE    PTSUNNY   82  68  61 SW8       30.15S HX  85
ROGERS         PTSUNNY   83  70  64 S16       30.15F HX  87
SILOAM SPGS    CLOUDY    86  64  48 S17G30    30.14F HX  87
HIGHFILL       CLOUDY    85  72  65 S12       30.13F HX  91
SPRINGDALE     PTSUNNY   82  72  69 S14       30.16F HX  87
$$

ARZ004-005-016-232000-
NORTH CENTRAL ARKANSAS

CITY           SKY/WX    TMP DP  RH WIND       PRES   REMARKS
BATESVILLE     PTSUNNY   88  73  62 SW8       30.16F HX  96
FLIPPIN        PTSUNNY   88  72  58 S8        30.12F HX  94
MTN HOME       PTSUNNY   84  74  71 SW8       30.15F HX  91
$$

ARZ040-041-232000-
WEST CENTRAL ARKANSAS

CITY           SKY/WX    TMP DP  RH WIND       PRES   REMARKS
MENA           CLOUDY    86  73  66 S6        30.18F HX  93
MOUNT IDA      SUNNY     85  71  63 SW8       30.16F HX  90
$$

ARZ009-017-025-026-028-232000-
NORTHEAST ARKANSAS

CITY           SKY/WX    TMP DP  RH WIND       PRES   REMARKS
CORNING          N/A     82  75  78 S10       30.18F HX  89
JONESBORO      PTSUNNY   85  73  67 S8        30.18F HX  91
NEWPORT        SUNNY     88  75  65 S12       30.17F HX  97
WALNUT RIDGE   MOSUNNY   82  73  74 S12       30.17F HX  88
BLYTHEVILLE    CLOUDY    77  74  90 E5        30.20F
NW BLYTHEVILLE CLOUDY    77  73  88 SE8       30.19F
$$

ARZ022-023-033-042-044-232000-
CENTRAL ARKANSAS

CITY           SKY/WX    TMP DP  RH WIND       PRES   REMARKS
LITTLE ROCK    MOSUNNY   90  72  55 SW10      30.17F HX  97
N LITTLE ROCK    N/A     87  74  65 SW6       30.14F HX  95
SEARCY         PTSUNNY   88  76  67 S10       30.18F HX  99
HOT SPRINGS    MOSUNNY   86  72  62 VRB5      30.18F HX  92
RUSSELLVILLE   PTSUNNY   84  73  69 VRB3      30.15F HX  90
$$

ARZ036-232000-
EAST ARKANSAS

CITY           SKY/WX    TMP DP  RH WIND       PRES   REMARKS
WEST MEMPHIS   CLOUDY    87  75  67 S8        30.18F HX  96
$$

ARZ050-053-066-070-073-232000-
SOUTHWEST ARKANSAS

CITY           SKY/WX    TMP DP  RH WIND       PRES   REMARKS
ARKADELPHIA    FAIR      88  76  67 SW7       30.17F HX  99
CAMDEN         MOSUNNY   90  72  55 S3        30.16F HX  96
TEXARKANA      PTSUNNY   85  74  69 S13       30.17F HX  92
EL DORADO      SUNNY     89  76  65 S6        30.17F HX 100
DE QUEEN       PTSUNNY   85  74  69 SW8       30.14F HX  92
$$

ARZ056-057-069-232000-
SOUTHEAST ARKANSAS

CITY           SKY/WX    TMP DP  RH WIND       PRES   REMARKS
PINE BLUFF     MOSUNNY   89  73  59 S10       30.17F HX  97
STUTTGART      MOSUNNY   90  72  55 SW7       30.18F HX  96
MONTICELLO     MOSUNNY   92  74  55 S7        30.17F HX 101

$$






USA.gov is the U.S. government's official web portal to all federal, state and local government web resources and services.